Torna al catalogo

CZ-6A DEB

AttivoSSO
NORAD 54303·DEBRIS·🇨🇳 China

Lanciato Nov 11, 2022 da Taiyuan Satellite Launch Center

Loading…

Prossimi Passaggi (prossime 24 ore)

TLE

AggiornatoSource: Space-Track

Epoca: Sep 14, 2026, 10:56 UTC

1 54303U 22151AW  26257.45580767 -.00000064  00000-0 -11806-4 0  9992
2 54303  98.8609 257.3788 0047872  97.9173 262.7434 14.09122164196926

Traccia CZ-6A DEB in tempo reale con AllMySat

Download on the App Store